This is the latest recevied weather packets stored in our database for station/object N9BSW. If no packets are shown the sender has not sent any weather packets the latest 10 day(s).
| Time | Temp. | Humidity | Pressure | Rain* | Wind** | Luminosity | Snow |
|---|---|---|---|---|---|---|---|
| 1777627974 | 10° C | 87% | 1012.5 hPa | 0 mm | - | 0 W/m² | - |
| 1777627672 | 10° C | 85% | 1012.5 hPa | 0 mm | - | 0 W/m² | - |
| 1777627371 | 10° C | 84% | 1012.4 hPa | 0 mm | - | 0 W/m² | - |
| 1777627070 | 10° C | 83% | 1012.3 hPa | 0 mm | - | 0 W/m² | - |
| 1777626765 | 10° C | 84% | 1012.4 hPa | 0 mm | - | 0 W/m² | - |
| 1777626461 | 10° C | 84% | 1012.5 hPa | 0 mm | - | 0 W/m² | - |
| 1777626161 | 10° C | 82% | 1012.8 hPa | 0 mm | - | 0 W/m² | - |
| 1777625860 | 10° C | 84% | 1012.7 hPa | 0 mm | - | 0 W/m² | - |
| 1777625556 | 10° C | 82% | 1012.7 hPa | 0 mm | - | 0 W/m² | - |
| 1777625251 | 10° C | 80% | 1012.7 hPa | 0 mm | - | 0 W/m² | - |
| 1777624948 | 10° C | 81% | 1012.5 hPa | 0 mm | - | 0 W/m² | - |
| 1777624645 | 10° C | 78% | 1012.4 hPa | 0 mm | - | 0 W/m² | - |
| 1777624340 | 10° C | 81% | 1012.5 hPa | 0 mm | - | 0 W/m² | - |
| 1777624038 | 10° C | 77% | 1012.6 hPa | 0 mm | - | 0 W/m² | - |
| 1777623734 | 10° C | 78% | 1012.5 hPa | 0 mm | - | 0 W/m² | - |
| 1777623431 | 10.56° C | 74% | 1012.7 hPa | 0 mm | - | 0 W/m² | - |
| 1777623129 | 10.56° C | 71% | 1012.5 hPa | 0 mm | - | 0 W/m² | - |
| 1777622826 | 10.56° C | 69% | 1012.6 hPa | 0 mm | - | 0 W/m² | - |
| 1777622522 | 11.11° C | 69% | 1012.7 hPa | 0 mm | - | 0 W/m² | - |
| 1777622219 | 11.11° C | 67% | 1012.7 hPa | 0 mm | - | 0 W/m² | - |
| 1777621915 | 11.11° C | 67% | 1012.6 hPa | 0 mm | - | 0 W/m² | - |
| 1777621610 | 11.11° C | 67% | 1012.8 hPa | 0 mm | - | 0 W/m² | - |
| 1777621308 | 11.11° C | 65% | 1012.6 hPa | 0 mm | - | 0 W/m² | - |
| 1777621003 | 11.11° C | 66% | 1012.8 hPa | 0 mm | - | 0 W/m² | - |
| 1777620699 | 11.11° C | 65% | 1012.6 hPa | 0 mm | - | 0 W/m² | - |
* Rain latest hour (hover to see other rain measurements)
** Current wind speed in m/s (hover to see current wind gust speed)